DW2257 Weather Reports


Display with metric or nautical units.
time (UTC)temp
F
wind
direction
speed
MPH
gust
MPH
rain 1hr
in
rain 24hr
in
rain mn
in
humidity
%
barometer
mb
20260505070143 53 175 4.0 9.0 0.00 0.00 0.00 81 1008.9
20260505064633 54 175 3.0 7.0 0.00 0.00 0.00 79 1008.8
20260505063149 54 137 3.0 9.0 0.00 0.00 0.00 78 1008.9
20260505061647 54 153 3.0 7.0 0.00 0.00 0.00 77 1009.0
20260505060143 54 157 4.0 10.0 0.00 0.00 0.00 77 1009.0
20260505054635 55 219 3.0 9.0 0.00 0.00 0.00 76 1008.8
20260505053150 55 207 4.0 10.0 0.00 0.00 0.00 75 1008.7
20260505051643 55 192 5.0 9.0 0.00 0.00 0.00 75 1008.9
20260505050134 55 191 4.0 13.0 0.00 0.00 0.00 74 1009.0
20260505041635 56 184 4.0 9.0 0.00 0.00 0.00 73 1009.1
20260505040209 56 167 4.0 7.0 0.00 0.00 0.00 72 1009.0
20260505034647 56 113 4.0 8.0 0.00 0.00 0.00 70 1009.0
20260505033136 57 133 5.0 10.0 0.00 0.00 0.00 69 1008.9
20260505031712 57 149 5.0 10.0 0.00 0.00 0.00 68 1008.9
20260505030206 57 148 4.0 9.0 0.00 0.00 0.00 67 1009.0
20260505024635 57 175 5.0 10.0 0.00 0.00 0.00 65 1008.9
20260505023151 58 141 5.0 10.0 0.00 0.00 0.00 64 1009.0
20260505021647 58 167 5.0 10.0 0.00 0.00 0.00 64 1009.0
20260505020202 57 199 3.0 10.0 0.00 0.00 0.00 65 1008.9
20260505014634 58 227 4.0 11.0 0.00 0.00 0.00 64 1008.8
20260505013140 58 192 6.0 11.0 0.00 0.00 0.00 65 1008.6
20260505011658 59 146 6.0 11.0 0.00 0.00 0.00 63 1008.3
20260505010150 58 164 6.0 9.0 0.00 0.00 0.00 64 1008.1
20260505004637 59 296 8.0 13.0 0.00 0.00 0.00 62 1007.8
20260505003152 60 136 6.0 15.0 0.00 0.00 0.00 58 1007.5
20260505001643 60 121 10.0 17.0 0.00 0.00 0.00 58 1007.0
20260505000144 60 166 10.0 16.0 0.00 0.00 0.00 59 1006.6
20260504234636 61 127 11.0 17.0 0.00 0.00 0.00 58 1006.4
20260504233153 62 129 11.0 17.0 0.00 0.00 0.00 55 1006.1
20260504231650 63 169 9.0 20.0 0.00 0.00 0.00 51 1005.7
20260504230142 64 169 7.0 19.0 0.00 0.00 0.00 50 1005.4
20260504224634 64 200 8.0 17.0 0.00 0.00 0.00 51 1005.3
20260504223150 65 139 9.0 21.0 0.00 0.00 0.00 49 1004.9
20260504221643 66 138 6.0 11.0 0.00 0.00 0.00 48 1005.0
20260504220157 68 268 11.0 17.0 0.00 0.00 0.00 41 1005.0
20260504214650 70 184 10.0 16.0 0.00 0.00 0.00 33 1005.0
20260504213140 71 207 12.0 17.0 0.00 0.00 0.00 32 1005.1
20260504211656 69 186 7.0 14.0 0.00 0.00 0.00 41 1005.0
20260504210150 71 248 9.0 19.0 0.00 0.00 0.00 36 1005.1
20260504204646 72 173 9.0 18.0 0.00 0.00 0.00 32 1004.9
20260504203137 69 194 10.0 17.0 0.00 0.00 0.00 39 1005.0
20260504201650 71 221 12.0 20.0 0.00 0.00 0.00 30 1005.2
20260504200147 71 190 8.0 16.0 0.00 0.00 0.00 35 1005.2
20260504194643 71 238 5.0 18.0 0.00 0.00 0.00 36 1005.3
20260504193135 70 218 13.0 22.0 0.00 0.00 0.00 33 1005.3
20260504191712 71 229 13.0 21.0 0.00 0.00 0.00 29 1005.4
20260504190146 69 223 14.0 21.0 0.00 0.00 0.00 30 1005.4
20260504184635 69 237 12.0 22.0 0.00 0.00 0.00 34 1005.5
20260504183213 68 184 9.0 21.0 0.00 0.00 0.00 39 1005.6
20260504181708 69 219 11.0 19.0 0.00 0.00 0.00 33 1005.8
20260504180143 70 207 13.0 19.0 0.00 0.00 0.00 32 1005.9
20260504174656 68 244 7.0 24.0 0.00 0.00 0.00 39 1006.0
20260504173211 68 244 14.0 23.0 0.00 0.00 0.00 31 1006.0
20260504171641 66 221 18.0 27.0 0.00 0.00 0.00 37 1006.0
20260504170136 65 246 10.0 20.0 0.00 0.00 0.00 43 1006.1
20260504160152 67 232 13.0 25.0 0.00 0.00 0.00 35 1006.9
20260504150147 65 224 13.0 23.0 0.00 0.00 0.00 35 1007.6
20260504140145 63 194 7.0 16.0 0.00 0.00 0.00 38 1008.1
20260504130139 59 221 8.0 18.0 0.00 0.00 0.00 43 1008.6
20260504120156 53 220 3.0 4.0 0.00 0.00 0.00 65 1009.0
20260504110148 51 234 4.0 7.0 0.00 0.00 0.00 52 1009.3
20260504100139 50 207 4.0 7.0 0.00 0.00 0.00 53 1009.2
20260504090133 50 209 6.0 11.0 0.00 0.00 0.00 50 1009.0
20260504081633 50 215 3.0 7.0 0.00 0.00 0.00 50 1009.0
20260504080147 50 250 4.0 7.0 0.00 0.00 0.00 51 1008.9